Regional Weather Roundup
Issued by NWS State College, PA

Home | Current Version | Previous Version | Text Only | Print | Product List | Glossary On
Versions: 1 2 3 4 5 6 7 8 9 10 11 12 13 14 15 16 17 18 19 20 21 22 23 24 25 26 27 28 29 30 31 32 33 34 35 36 37 38 39 40 41 42 43 44 45 46 47 48 49 50
000
ASUS41 KCTP 221403
RWRCTP

REGIONAL WEATHER ROUNDUP
NATIONAL WEATHER SERVICE STATE COLLEGE PA
1000 AM EDT WED OCT 22 2014

Note: "fair" indicates few or no clouds below 12,000 feet with no
significant weather and/or obstructions to visibility.

* = STATION THAT DOES NOT REPORT PRECIPITATION /E.G. RAIN...SNOW...ETC/
    THUNDER OR FOG.

PAZ002>004-007>009-013>016-020>023-029>032-221500-
WESTERN PENNSYLVANIA

CITY           SKY/WX    TMP DP  RH WIND       PRES   REMARKS
ERIE           CLOUDY    47  40  76 NE12      30.23R
MEADVILLE      CLOUDY    45  40  82 N13G20    30.19R
FRANKLIN*      CLOUDY    45  39  81 N9        30.18S
NEW CASTLE       N/A     46  43  90 N10       30.20R
BEAVER COUNTY  CLOUDY    46  43  87 N10       30.16R
BUTLER*        CLOUDY    46  39  76 N7        30.16S
PITTSBURGH INT CLOUDY    47  44  90 N13       30.15S
PITTSBURGH     CLOUDY    47  41  80 N9        30.13R
INDIANA*       CLOUDY    46  43  87 N8        30.15S
LATROBE        CLOUDY   N/A N/A N/A NE12      30.14S
WASHINGTON CO* CLOUDY    46  43  87 N7        30.16S
$$

PAZ004>006-010>012-017>019-024>028-033>037-041-042-045-046-049>053-221500-
CENTRAL PENNSYLVANIA

CITY           SKY/WX    TMP DP  RH WIND       PRES   REMARKS
BRADFORD       CLOUDY    41  39  93 N8        30.14R FOG
DUBOIS         CLOUDY    44  42  93 N10       30.11R
CLEARFIELD     CLOUDY    47  42  83 N13       30.10R
JOHNSTOWN      CLOUDY    43  40  89 N13       30.08R
ALTOONA        CLOUDY    48  44  86 N8        30.06R
STATE COLLEGE  CLOUDY    48  43  81 NE12      30.06R
WILLIAMSPORT   CLOUDY    52  44  74 NW9G17    30.04R
SELINSGROVE    LGT RAIN  53  47  79 N14       30.02R
FT INDIANTOWN  CLOUDY    54  54 100 N10G20    29.97R
CAPITAL CITY   LGT RAIN  55  48  77 N10       29.98R
HARRISBURG     LGT RAIN  54  49  83 N13       29.96R
YORK           LGT RAIN  54  48  80 N12G21    29.95S
$$

PAZ038>040-043-044-047-048-054-055-060>062-067>071-221500-
EASTERN PENNSYLVANIA

CITY           SKY/WX    TMP DP  RH WIND       PRES   REMARKS
SCRANTON       CLOUDY    53  47  79 N10       30.01R
MOUNT POCONO   CLOUDY    49  45  86 NE15      29.97S
ALLENTOWN      LGT RAIN  54  50  86 NE15G21   29.95S
QUAKERTOWN*    CLOUDY    54  50  87 NE9G18    29.94R
READING        LGT RAIN  54  50  86 N10       29.93F
LANCASTER      LGT RAIN  53  50  89 N9        29.94R
COATESVILLE    LGT RAIN  54  50  87 N13       29.91S
POTTSTOWN      CLOUDY    53  50  89 NE14G23   29.93R
BLUE BELL      CLOUDY    55  54  94 N6        29.90R
DOYLESTOWN     LGT RAIN  52  52 100 N12G21    29.91S
WILLOW GROVE   NOT AVBL
NORTH PHILA    LGT RAIN  57  51  80 N17       29.91R
PHILADELPHIA   CLOUDY    58  52  80 NE15G29   29.88R
$$



USA.gov is the U.S. government's official web portal to all federal, state and local government web resources and services.